Location: Barrio de Buenos Aires
(28.4500°N, 16.2667°W)
Time: 07:15:11
(UTC+00:00)

Meteor 2-10 Rocket - Pass Details

Date: 24 January 2020
Orbit: 733 x 885 km, 81.2° (Epoch: 17 February)

Event Time Altitude Azimuth Distance (km) Brightness Sun altitude
Rises 19:33:27 0° 354° (N) 3,262 6.7 -12.5°
Reaches altitude 10° 19:35:52 10° 356° (N) 2,310 5.9 -13.0°
Maximum altitude 19:41:02 78° 82° (E) 769 3.4 -14.1°
Drops below altitude 10° 19:46:02 10° 169° (S) 2,235 6.0 -15.1°
Sets 19:48:20 0° 171° (S) 3,147 6.7 -15.6°
